{"data":{"norad_id":66887,"epoch":"2026-09-20T12:35:54.401280Z","epoch_age_seconds":82825,"freshness":"FRESH","line1":"1 66887U 25283K   26263.52493520  .00008778  00000+0  27078-3 0  9990","line2":"2 66887  53.1577 195.6808 0001342  89.6119 270.5038 15.34380374 45727","mean_motion":15.34380374,"eccentricity":0.0001342,"inclination_deg":53.1577,"raan_deg":195.6808,"arg_perigee_deg":89.6119,"mean_anomaly_deg":270.5038,"bstar":0.00027078,"rev_number":4572,"period_min":93.848958472145,"perigee_km":461.84352484831,"apogee_km":463.67962202542,"semimajor_km":6840.8985734369,"source":"CELESTRAK","updated_at":"2026-09-21T09:00:36.033800Z"}}